Regional Weather Roundup
Issued by NWS

Home | Current Version | Previous Version | Text Only | Print | Product List | Glossary On
Versions: 1 2 3 4 5 6 7 8 9 10 11 12 13 14 15 16 17 18 19 20 21 22 23 24 25 26 27
000
ASPQ40 PGUM 300912
RWRPQ
WEATHER ROUNDUP FOR THE MARIANAS AND MICRONESIA
NATIONAL WEATHER SERVICE TIYAN GU
700 PM CHST THU MAR 30 2017

GUZ001>004-301000-
MARIANA ISLANDS-

CITY           SKY/WX    TMP DP  RH WIND       PRES   REMARKS
GUAM AIRPORT   CLOUDY    81  75  83 NE15      29.96R
ANDERSEN AFB   CLOUDY    79  73  83 E20G25    29.97R
ROTA AIRPORT   MOCLDY    79  72  78 E16G22    29.98R
TINIAN AP      PTCLDY    81  72  74 NE20      29.96R
SAIPAN AP      CLOUDY    81  72  74 NE15G25   29.97R

$$

PMZ161-301000-
REPUBLIC OF PALAU-

CITY           SKY/WX    TMP DP  RH WIND       PRES   REMARKS
KOROR AP       MOCLDY    81  77  89 NE5       29.83R
KOROR WSO      CLOUDY    82  77  83 NE8       29.84R HX  91

$$

PMZ171>174-301000-
FEDERATED STATES OF MICRONESIA-

CITY           SKY/WX    TMP DP  RH WIND       PRES   REMARKS
YAP AIRPORT    MOCLDY    82  75  78 NE12      29.86R
CHUUK AP       CLOUDY    82  73  74 NE8       29.87R
POHNPEI AP     NOT AVBL
POHNPEI WSO    CLOUDY    84  73  70 E8        29.91R HX  91
KOSRAE AP      NOT AVBL

$$

PMZ181-301000-
REPUBLIC OF THE MARSHALL ISLANDS-

CITY           SKY/WX    TMP DP  RH WIND       PRES   REMARKS
KWAJALEIN AP   MOCLDY    82  72  69 NE15      29.89R
MAJURO AP      NOT AVBL
MAJURO WSO     MOCLDY    81  77  89 E8        29.83R

$$





USA.gov is the U.S. government's official web portal to all federal, state and local government web resources and services.